Regional Weather Roundup
Issued by NWS

Home | Current Version | Previous Version | Text Only | Print | Product List | Glossary On
Versions: 1 2 3 4 5 6 7 8 9 10 11 12 13 14 15 16 17 18 19 20 21 22 23 24 25 26 27 28 29 30 31 32 33 34 35 36 37 38 39 40 41 42 43 44 45 46 47 48 49 50
626
ASUS43 KMKX 221724
RWRWI

WISCONSIN REGIONAL WEATHER ROUNDUP
NATIONAL WEATHER SERVICE MILWAUKEE/SULLIVAN WI
1200 PM CDT FRI MAY 22 2015

NOTE: "FAIR" INDICATES FEW OR NO CLOUDS BELOW 12,000 FEET WITH NO
SIGNIFICANT WEATHER AND/OR OBSTRUCTIONS TO VISIBILITY.

WIZ001-002-006>008-014>016-023>028-221800-
NORTHWEST WISCONSIN

CITY           SKY/WX    TMP DP  RH WIND       PRES   REMARKS
SUPERIOR ARPT  SUNNY     61  39  45 E6        30.21F
ASHLAND        SUNNY     66  35  31 VRB5      30.22S
HAYWARD        SUNNY     65  27  23 VRB5      30.22S
SIREN          SUNNY     66  28  24 E7        30.22S
CUMBERLAND     SUNNY     63  30  29 SW3       30.23R
RICE LAKE      SUNNY     65  28  25 CALM      30.24R
CHETEK         SUNNY     64  34  32 CALM      30.23R
LADYSMITH      SUNNY     64  31  29 CALM      30.23S
EAU CLAIRE     SUNNY     66  32  28 VRB5      30.23R
MENOMONIE      SUNNY     66  29  25 NE6       30.23R
NEW RICHMOND   SUNNY     65  32  28 S3        30.23R
OSCEOLA        SUNNY     67  35  30 SW5       30.25S
$$

WIZ003>005-009-010-017-018-221800-
NORTH CENTRAL WISCONSIN

CITY           SKY/WX    TMP DP  RH WIND       PRES   REMARKS
MANITOWISH WTR SUNNY     61  29  29 NW6       30.21S
ARBOR VITAE    SUNNY     62  28  27 N7G17     30.21S
WOODRUFF       SUNNY     62  28  27 N7G17     30.21S
RHINELANDER    SUNNY     61  27  27 NW13      30.22R
EAGLE RIVER    SUNNY     60  18  19 N8        30.20S
LAND O LAKES   SUNNY     59  12  15 NW7       30.22R
PHILLIPS       SUNNY     61  32  33 N7        30.21S
TOMAHAWK       SUNNY     62  26  25 W5G16     30.21S
MEDFORD        SUNNY     62  34  34 N7        30.22R
MERRILL        SUNNY     62  30  30 CALM      30.22R
$$

WIZ029-030-035-036-043>047-221800-
CENTRAL WISCONSIN

CITY           SKY/WX    TMP DP  RH WIND       PRES   REMARKS
WAUSAU         SUNNY     63  31  30 VRB7      30.20S
MOSINEE        SUNNY     63  34  34 VRB6      30.23S
MARSHFIELD     SUNNY     65  33  30 VRB3      30.23R
STEVENS POINT  SUNNY     61  30  30 SW6       30.22S
WAUPACA        SUNNY     66  27  23 NW6       30.23R
WAUTOMA        SUNNY     65  30  27 VRB6      30.24R
WISC RAPIDS    SUNNY     64  24  21 CALM      30.24R
CAMP DOUGLAS   MOSUNNY   64  37  36 VRB3      30.22R
$$

WIZ011>013-019>022-031-037>040-048>050-221800-
NORTHEAST WISCONSIN

CITY           SKY/WX    TMP DP  RH WIND       PRES   REMARKS
ANTIGO         SUNNY     60  33  36 W3        30.21S
SHAWANO        SUNNY     64  33  32 CALM      30.22S
OCONTO         SUNNY     58  31  35 SE9       30.23R
STURGEON BAY   SUNNY     54  30  40 E8        30.27R
GREEN BAY      SUNNY     61  29  29 VRB6      30.23S
MANITOWOC      SUNNY     51  32  48 SE12      30.25R
APPLETON       NOT AVBL
CLINTONVILLE   SUNNY     63  28  27 N6        30.22S
OSHKOSH        SUNNY     60  33  36 CALM      30.23S
$$

WIZ032>034-041-042-053>061-221800-
SOUTHWEST WISCONSIN

CITY           SKY/WX    TMP DP  RH WIND       PRES   REMARKS
LA CROSSE      SUNNY     69  39  33 CALM      30.21S
SPARTA         SUNNY     67  34  28 N5        30.23R
VIROQUA        SUNNY     67  38  34 CALM      30.22S
BOSCOBEL       SUNNY     71  39  31 NW5       30.21F
PRAIRIE DU CHI SUNNY     69  38  32 W5        30.21S
PLATTEVILLE    SUNNY     67  38  33 W3        30.22S
$$

WIZ056-057-062-063-064-067-068-221800-
SOUTH CENTRAL WISCONSIN

CITY           SKY/WX    TMP DP  RH WIND       PRES   REMARKS
REEDSBURG      SUNNY     65  37  35 W3        30.23R
BARABOO/DELLS  SUNNY     65  31  28 W5        30.23S
LONE ROCK      SUNNY     69  37  30 VRB6      30.22S
MINERAL POINT  SUNNY     66  32  28 SW3       30.22F
MADISON        MOSUNNY   64  34  32 SE3       30.23R
MIDDLETON      SUNNY     69  29  22 W3        30.24R
WATERTOWN      SUNNY     64  36  35 CALM      30.23S
MONROE         SUNNY     64  37  36 SW3       30.22S
JANESVILLE     SUNNY     68  30  24 SE6       30.22R
$$

WIZ051-052-058>065-066-070>072-221800-
SOUTHEAST WISCONSIN

CITY           SKY/WX    TMP DP  RH WIND       PRES   REMARKS
MILWAUKEE      SUNNY     54  30  40 E7        30.27R
WAUKESHA       SUNNY     61  30  31 E6        30.25R
MILWAUKEE/TIMM SUNNY     57  18  21 SE6       30.26R
RACINE         SUNNY     56  29  35 NE7       30.28R
BURLINGTON     SUNNY     63  29  28 CALM      30.24R
KENOSHA        SUNNY     59  31  34 E7        30.26R
FOND DU LAC    SUNNY     65  34  31 VRB3      30.24R
SHEBOYGAN      SUNNY     58  31  35 VRB3      30.24S
WEST BEND      SUNNY     61  28  29 CALM      30.24R
JUNEAU         SUNNY     61  33  34 CALM      30.25R
$$

LSZ147-162-221800-
LAKE SUPERIOR

STATION/POSITION TIME  TEMP    WIND        PRES    WAVE
                       AIR SEA DIR/SP/G            HT/PER
                 (UTC) (F)     (DEG/KT/KT) (MB)    (FT/S)
W MID LAKE BUOY  1650   37 36  110/  2/  4   N/A     0
DEVILS ISLAND    1700   42     100/  6/  6   N/A
PORT WING        1640   47      30/  3/  4   N/A
SAXON HARBOR     1600   52        CALM       N/A
$$

LMZ867-665-643>646-221800-
LAKE MICHIGAN

STATION/POSITION TIME  TEMP    WIND        PRES    WAVE
                       AIR SEA DIR/SP/G            HT/PER
                 (UTC) (F)     (DEG/KT/KT) (MB)    (FT/S)
CHAMBERS ISLAND  1600   47      60/  5/  7   N/A
N MID LAKE BUOY  1650   38 36   90/  6/  6   N/A     1
NORTHPORT PIER   1640   43      90/  7/  9   N/A
SISTER BAY       1617   55        CALM       N/A
KEWAUNEE LAKESHO 1700   45     100/  5/  9   N/A
SHEBOYGAN LAKESH 1700           90/  9/ 10   N/A
PORT WASHINGTON  1640   48      90/  3/  4   N/A
ATWATER BUOY     1700   45 45  360/  4/  4   N/A
MILWAUKEE LAKESH 1700   45      50/  6/  6   N/A
S MID LAKE BUOY  1650   40 38  340/  6/  6   N/A     1
KENOSHA   LAKESH 1700   47      40/  7/  8   N/A
$$

TC  - TEMPERATURE IN CELSIUS
VSB - VISIBILITY IN STATUTE MILES
WCI - WIND CHILL INDEX
HX  - HEAT INDEX




USA.gov is the U.S. government's official web portal to all federal, state and local government web resources and services.